Back to catalog

ATLAS 5 CENTAUR DEB

LostHEO
NORAD 47250·DEBRIS·🇺🇸 United States

Launched Oct 17, 2018 from Cape Canaveral Space Force Station

Loading…

Next Passes (next 24 hours)

TLE

StaleSource: Space-Track

Epoch: Feb 9, 2023, 06:19 UTC

1 47250U 18079EJ  23040.26347500 -.00000041  00000-0  00000+0 0  9994
2 47250  11.5059 134.7412 4764029 137.3918 271.2974  1.93739688 15560

Track ATLAS 5 CENTAUR DEB in real time with AllMySat

Download on the App Store